カタログに戻る

STARLINK-31715

運用中通信VLEO
NORAD 59384·PAYLOAD·🇺🇸 United States

打ち上げ Apr 2, 2024 から Vandenberg Space Force Base

Loading…

次のパス (今後24時間)

TLE

最新Source: CelesTrak SupGP

元期: Sep 14, 2026, 22:15 UTC

1 59384C 24062L   26257.92756944 -.00002389  00000+0 -70607-4 0  2575
2 59384  53.1567  93.8258 0001309  90.6912 310.2022 15.34383600    17

AllMySatでSTARLINK-31715をリアルタイム追跡

Download on the App Store